Weather History for CYQG - May, 2013

Change the Weather History Date:

Monday, May 20, 2013

  Actual Average Record
Temperature  
Mean Temperature 74 °F -  
Max Temperature 86 °F 75 °F 86 °F (1998)
Min Temperature 63 °F 54 °F 37 °F (2002)
Cooling Degree Days 10    
Growing Degree Days 24 (Base 50)    
Moisture  
Dew Point 64 °F    
Average Humidity 68    
Maximum Humidity 88    
Minimum Humidity 38    
Precipitation  
Precipitation 0.00 in 0.12 in - ()
Sea Level Pressure  
Sea Level Pressure 29.89 in    
Wind  
Wind Speed 7 mph ()    
Max Wind Speed 20 mph    
Max Gust Speed 25 mph    
Visibility 11.5 miles    
Events      
Averages and records for this station are not official NWS values.
T = Trace of Precipitation, MM = Missing Value Source: Averaged Metar Reports

Daily Weather History Graph

Daily Weather History Graph

Search for Another Location

Airport or City:

Trip Planner

Search our weather history database for the weather conditions in past years. The results will help you decide how hot, cold, wet, or windy it might be!

Date:

Astronomy

May. 20, 2013 Rise Set
Actual Time 6:05 AM EDT 8:51 PM EDT
Civil Twilight 5:33 AM EDT 9:24 PM EDT
Nautical Twilight 4:51 AM EDT 10:05 PM EDT
Astronomical Twilight 4:04 AM EDT 10:53 PM EDT
Moon 3:52 PM EDT (5/20) 3:05 AM EDT (5/20)
Length of Visible Light 15h 51m
Length of Day
14h 45m
Waxing Gibbous, 75% of the Moon is Illuminated
May 20
Waxing Gibbous
May 25
Full
May 31
Last Quarter
Jun 8
New
Jun 16
First Quarter

Hourly Weather History & Observations

Time (EDT) Temp. Heat Index Dew Point Humidity Pressure Visibility Wind Dir Wind Speed Gust Speed Precip Events Conditions
12:00 AM 66.2 °F - 57.2 °F 73% 29.93 in 15.0 mi ESE 5.8 mph - N/A   Clear
1:00 AM 64.4 °F - 59.0 °F 83% 29.94 in 15.0 mi South 4.6 mph - N/A   Clear
2:00 AM 65 °F - 59 °F 76% 29.93 in 15 mi SSE 3.5 mph - -   Clear
2:00 AM 66.2 °F - 59.0 °F 78% 29.93 in 15.0 mi SSE 3.5 mph - N/A   Partly Cloudy
3:00 AM 64.4 °F - 59.0 °F 83% 29.93 in 15.0 mi SSE 2.3 mph - N/A   Partly Cloudy
4:00 AM 64.4 °F - 60.8 °F 88% 29.94 in 15.0 mi SSE 3.5 mph - N/A   Scattered Clouds
5:00 AM 64.4 °F - 60.8 °F 88% 29.93 in 15.0 mi SSE 4.6 mph - N/A   Mostly Cloudy
6:00 AM 64.4 °F - 60.8 °F 88% 29.94 in 12.0 mi SSE 5.8 mph - N/A   Scattered Clouds
7:00 AM 64.4 °F - 60.8 °F 88% 29.94 in 10.0 mi ESE 3.5 mph - N/A   Scattered Clouds
8:00 AM 69 °F - 63 °F 76% 29.92 in 12 mi SSE 6.9 mph - -   Clear
8:00 AM 68.0 °F - 62.6 °F 83% 29.92 in 12.0 mi SSE 8.1 mph - N/A   Mostly Cloudy
9:00 AM 73.4 °F - 64.4 °F 73% 29.93 in 15.0 mi South 8.1 mph - N/A   Mostly Cloudy
10:00 AM 77.0 °F - 66.2 °F 69% 29.95 in 15.0 mi SSW 11.5 mph - N/A   Overcast
11:00 AM 75.2 °F - 66.2 °F 73% 29.94 in 10.0 mi SW 8.1 mph - N/A   Mostly Cloudy
12:00 PM 77.0 °F - 68.0 °F 74% 29.93 in 10.0 mi South 12.7 mph - N/A   Mostly Cloudy
1:00 PM 82.4 °F 86.3 °F 69.8 °F 66% 29.91 in 8.0 mi SW 12.7 mph - N/A   Mostly Cloudy
2:00 PM 84 °F - 69 °F 53% 29.89 in 10 mi South 15.0 mph - -   Scattered Clouds
2:00 PM 84.2 °F 88.4 °F 69.8 °F 62% 29.89 in 10.0 mi SSW 16.1 mph 23.0 mph N/A   Mostly Cloudy
3:00 PM 84.2 °F 88.4 °F 69.8 °F 62% 29.87 in 10.0 mi South 18.4 mph 24.2 mph N/A   Mostly Cloudy
4:00 PM 86.0 °F 90.4 °F 69.8 °F 58% 29.83 in 8.0 mi South 19.6 mph 25.3 mph N/A   Mostly Cloudy
5:00 PM 86.0 °F 89.4 °F 68.0 °F 55% 29.80 in 8.0 mi South 18.4 mph 25.3 mph N/A   Mostly Cloudy
6:00 PM 86.0 °F 88.2 °F 66.2 °F 51% 29.80 in 8.0 mi South 15.0 mph 21.9 mph N/A   Mostly Cloudy
7:00 PM 86.0 °F 87.3 °F 64.4 °F 48% 29.80 in 7.0 mi SSW 13.8 mph 20.7 mph N/A   Mostly Cloudy
8:00 PM 85 °F - 63 °F 38% 29.81 in 7 mi SW 10.4 mph - -   Haze
8:00 PM 86.0 °F 86.6 °F 62.6 °F 45% 29.81 in 7.0 mi SW 10.4 mph - N/A   Mostly Cloudy
9:00 PM 82.4 °F 83.4 °F 62.6 °F 51% 29.81 in 8.0 mi SW 8.1 mph - N/A   Mostly Cloudy
10:00 PM 78.8 °F - 62.6 °F 57% 29.83 in 15.0 mi SSW 8.1 mph - N/A   Mostly Cloudy
11:00 PM 78.8 °F - 64.4 °F 61% 29.84 in 15.0 mi SSW 9.2 mph - N/A   Mostly Cloudy